Weather Roundup
Issued by NWS

Home | Current Version | Previous Version | Text Only | Print | Product List | Glossary On
Versions: 1 2 3 4 5 6 7 8 9 10 11 12 13 14 15 16 17 18 19 20 21 22 23 24 25 26 27 28 29 30 31 32 33 34 35 36 37 38 39 40 41 42 43 44 45 46 47 48 49 50
000
NZUS93 KARX 220059
HRRWXR

CURRENT HOURLY OBSERVATIONS ACROSS
MUCH OF THE UPPER MISSISSIPPI VALLEY
NATIONAL WEATHER SERVICE LA CROSSE WI
800 PM CDT SUN SEP 21 2014


...SOUTHEAST MINNESOTA...


CITY           SKY/WX    TMP DP  RH WIND       PRES   REMARKS
ROCHESTER      CLEAR     54  46  74 N7        30.19R
ROCHESTER/MAYO FAIR      59  44  57 NW3       30.18R
WINONA         CLEAR     59  48  67 NW3       30.17R
AUSTIN         CLEAR     55  48  76 NW3       30.18S
ALBERT LEA     CLEAR     57  48  72 CALM      30.19S
DODGE CENTER   CLEAR     57  48  72 NW5       30.18S
PRESTON        CLEAR     53  50  89 N3        30.18R
OWATONNA       CLEAR     55  48  76 W6        30.20R
FARIBAULT      CLEAR     55  48  76 W5        30.20R
$$

...ELSEWHERE IN MINNESOTA...


CITY           SKY/WX    TMP DP  RH WIND       PRES   REMARKS
MINNEAPOLIS    CLEAR     61  46  57 N3        30.19R
INTNL FALLS    CLOUDY    54  49  83 NW3       30.16S
DULUTH         CLEAR     53  43  68 W3        30.16R
RED WING       CLEAR     54  48  82 N3        30.17R
REDWOOD FALLS  CLEAR     58  50  75 NW3       30.22R
MANKATO        CLEAR     57  46  67 NW6       30.21R
WORTHINGTON    CLEAR     55  45  67 N6        30.24S
FAIRMONT       PTCLDY    55  45  67 NW3       30.22R
$$

...SOUTHWEST WISCONSIN...


CITY           SKY/WX    TMP DP  RH WIND       PRES   REMARKS
LA CROSSE      CLEAR     56  46  69 N6        30.15R
PRAIRIE DU CHI CLEAR     58  46  64 W3        30.14R
BOSCOBEL       CLEAR     55  48  77 CALM      30.14R
LONE ROCK      NOT AVBL
PLATTEVILLE    PTCLDY    55  47  72 NW7       30.14R
FORT MC COY    CLEAR     53  45  74 CALM      30.15R
VIROQUA        FAIR      54  46  73 N5        30.14S
WIS DELLS      CLEAR     56  43  61 NW3       30.12R
$$

...ELSEWHERE IN WISCONSIN...


CITY           SKY/WX    TMP DP  RH WIND       PRES   REMARKS
MILWAUKEE      PTCLDY    53  41  63 N7        30.10R
MADISON        PTCLDY    55  45  68 NW5       30.11R
GREEN BAY      CLEAR     49  42  77 N7        30.12R
EAU CLAIRE     NOT AVBL
BLACK RVR FLS  FAIR      49  45  84 CALM      30.14R
MEDFORD        CLEAR     46  40  78 CALM      30.15R
WAUSAU         CLEAR     50  38  63 NW7       30.14R
WIS RAPIDS     CLEAR     50  44  80 NW5       30.16R
MARSHFIELD     CLEAR     52  42  69 N8        30.15R
RICE LAKE      CLEAR     56  44  62 NW5       30.18R
$$

...NORTHEAST IOWA...


CITY           SKY/WX    TMP DP  RH WIND       PRES   REMARKS
WATERLOO       CLEAR     54  47  77 NW6       30.17R
DUBUQUE        CLEAR     54  47  77 NW9       30.15R
DECORAH        CLEAR     57  46  67 N7        30.15S
MASON CITY     CLEAR     55  49  80 NW9       30.21R
CHARLES CITY   CLEAR     55  48  76 NW5       30.18R
OELWEIN        CLEAR     55  48  76 N7        30.17R
$$

...ELSEWHERE IN IOWA...


CITY           SKY/WX    TMP DP  RH WIND       PRES   REMARKS
DES MOINES     PTCLDY    63  48  58 N6        30.18R
IOWA CITY        N/A     59  49  69 NW5       30.16R
FORT DODGE     CLEAR     57  46  67 CALM      30.22R
MARSHALLTOWN   CLEAR     56  48  74 N7        30.18R
CEDAR RAPIDS   CLEAR     55  49  80 NW6       30.15R
$$

...NORTHERN ILLINOIS...


CITY           SKY/WX    TMP DP  RH WIND       PRES   REMARKS
CHICAGO-OHARE  PTCLDY    60  49  66 N3        30.09R
DUPAGE         PTCLDY    54  45  71 N6        30.09R
CHICAGO-MIDWAY MOCLDY    60  49  66 N10       30.09R
MOLINE         PTCLDY    61  51  70 NW7       30.12R
ROCKFORD       PTCLDY    57  46  66 NW6       30.13R
STERLING       MOCLDY    61  46  59 N6        30.12R
PEORIA         CLEAR     59  50  72 NW6       30.12R
$$

NOTE: "FAIR" INDICATES FEW OR NO CLOUDS BELOW 12,000 FEET WITH NO
SIGNIFICANT WEATHER AND/OR OBSTRUCTIONS TO VISIBILITY. WIND
SPEEDS ARE IN MILES-PER-HOUR.



USA.gov is the U.S. government's official web portal to all federal, state and local government web resources and services.